Home > Weather > Surgut > Past weeks

Flag for Russia Past Weather in Surgut, Russia — Yesterday and Last 2 Weeks

Now
48 °F

Clear.


Feels Like: 47 °F
Forecast: 48 / 64 °F
Wind: 3 mph from Northwest

Location: Surgut Airport

Current Time: Jul 31, 2016 at 12:11:28 AM

Latest Report: Jul 30, 2016 at 11:30 PM


Visibility: 4 mi

Pressure: 29.89 "Hg

Humidity: 87%

Dew Point: 45 °F

Location of SurgutLocation

Past Weather in Surgut — Graph

°F

Surgut Temperature Yesterday

Maximum temperature yesterday: 63 °F (at 3:30 PM)
Minimum temperature yesterday: 48 °F (at 10:30 PM)
Average temperature yesterday: 57 °F

High & Low Weather Summary for the Past Weeks

 TemperatureHumidityPressure
High84 °F (Jul 20, 12:00 PM)100% (Jul 15, 11:00 PM)30.04 "Hg (Jul 15, 11:00 PM)
Low48 °F (Jul 30, 10:30 PM)28% (Jul 19, 1:30 PM)29.53 "Hg (Jul 15, 11:00 PM)
Average68 °F68%29.85 "Hg
* Reported Jul 15 11:00 PM — Jul 30 11:00 PM, Surgut, Weather by CustomWeather, © 2016

Note: Actual official high and low records may vary slightly from our data, if they occured in-between our weather recording intervals... More about our weather records

Advertising

Surgut Weather History for the Previous 24 Hours

Scroll right to see more
 ConditionsComfort  
Time TempWeatherWind HumidityBarometerVisibility
11:00 PM
Sat, Jul 30
48 °FClear.3 mph87%29.89 "Hg4 mi
10:30 PM48 °FClear.3 mph87%29.89 "Hg4 mi
10:00 PM50 °FClear.3 mph82%29.89 "Hg4 mi
9:30 PM52 °FPassing clouds.3 mph72%29.89 "Hg4 mi
9:00 PM54 °FPassing clouds.3 mph67%29.89 "Hg4 mi
8:30 PM55 °FPartly sunny.6 mph59%29.89 "Hg4 mi
8:00 PM55 °FPartly sunny.8 mph63%29.86 "Hg4 mi
7:30 PM55 °FPartly sunny.8 mph63%29.86 "Hg4 mi
7:00 PM57 °FPartly sunny.10 mph59%29.86 "Hg4 mi
6:30 PM57 °FPartly sunny.10 mph59%29.86 "Hg4 mi
6:00 PM59 °FPartly sunny.10 mph55%29.83 "Hg4 mi
5:30 PM59 °FClear.8 mph59%29.83 "Hg4 mi
5:00 PM61 °FPartly sunny.10 mph55%29.83 "Hg4 mi
4:30 PM61 °FScattered clouds.10 mph59%29.83 "Hg4 mi
4:00 PM61 °FScattered clouds.10 mph55%29.80 "Hg4 mi
3:30 PM63 °FScattered clouds.13 mph52%29.80 "Hg4 mi
3:00 PM61 °FPartly sunny.13 mph55%29.80 "Hg4 mi
2:30 PM61 °FPartly sunny.10 mph55%29.80 "Hg4 mi
2:00 PM61 °FPartly sunny.10 mph59%29.77 "Hg4 mi
1:30 PM61 °FPartly sunny.10 mph59%29.77 "Hg4 mi
1:00 PM61 °FPartly sunny.13 mph59%29.77 "Hg4 mi
12:30 PM59 °FPartly sunny.13 mph68%29.77 "Hg4 mi
12:00 PM59 °FPartly sunny.13 mph68%29.77 "Hg4 mi
11:30 AM59 °FPartly sunny.15 mph68%29.74 "Hg4 mi
11:00 AM57 °FPartly sunny.10 mph77%29.74 "Hg4 mi
10:30 AM57 °FPartly sunny.10 mph77%29.74 "Hg4 mi
10:00 AM57 °FPartly sunny.15 mph77%29.74 "Hg4 mi
9:30 AM57 °FPartly sunny.15 mph82%29.71 "Hg4 mi
9:00 AM57 °FPartly sunny.15 mph77%29.71 "Hg4 mi
8:30 AM57 °FPartly sunny.13 mph77%29.71 "Hg4 mi
8:00 AM57 °FPartly sunny.13 mph82%29.68 "Hg4 mi
7:30 AM57 °FPartly sunny.13 mph82%29.68 "Hg4 mi
7:00 AM57 °FPartly sunny.13 mph82%29.68 "Hg4 mi
6:30 AM55 °FPartly sunny.13 mph94%29.65 "Hg4 mi
6:00 AM55 °FPartly sunny.10 mph94%29.65 "Hg4 mi
5:30 AM55 °FPartly sunny.13 mph100%29.65 "Hg4 mi
5:00 AM55 °FPartly sunny.13 mph100%29.62 "Hg4 mi
4:30 AM55 °FPartly sunny.13 mph100%29.62 "Hg4 mi
3:30 AM57 °FPassing clouds.15 mph94%29.62 "Hg4 mi
3:00 AM57 °FPassing clouds.10 mph100%29.62 "Hg4 mi
2:30 AM57 °FPassing clouds.8 mph100%29.62 "Hg4 mi
2:00 AM57 °FPassing clouds.13 mph100%29.59 "Hg4 mi
1:30 AM59 °FPassing clouds.13 mph100%29.59 "Hg4 mi
1:00 AM61 °FPassing clouds.8 mph100%29.59 "Hg4 mi
12:30 AM61 °FPassing clouds.10 mph100%29.59 "Hg4 mi
12:00 AM61 °FPassing clouds.6 mph100%29.59 "Hg4 mi
Weather by CustomWeather, © 2016

See weather overviewHow to use our weather pages